Home   Weather   Manado   Past weeks

Flag for Indonesia Past Weather in Manado, North Sulawesi, Indonesia — Yesterday and Last 2 Weeks

Now
75 °F

Passing clouds.


Feels Like: 73 °F
Forecast: 76 / 87 °F
Wind: 1 mph from North

Location: Menado / Dr. Sam Ratulangi

Current Time: Jan 22, 2017 at 6:12:06 am

Latest Report: Jan 22, 2017 at 5:30 am


Visibility: N/A

Pressure: 29.89 "Hg

Humidity: 100%

Dew Point: 75 °F

Location of ManadoLocation

Past Weather in Manado — Graph

°F

Manado Temperature Yesterday

Maximum temperature yesterday: 90 °F (at 9:00 am)
Minimum temperature yesterday: 75 °F (at 12:00 am)
Average temperature yesterday: 78 °F

High & Low Weather Summary for the Past Weeks

 TemperatureHumidityPressure
High93 °F (Jan 11, 11:30 am)100% (Jan 7, 7:00 am)29.95 "Hg (Jan 7, 7:00 am)
Low73 °F (Jan 8, 1:30 pm)49% (Jan 12, 1:00 pm)29.65 "Hg (Jan 7, 3:00 pm)
Average80 °F84%29.80 "Hg
* Reported Jan 7 5:00 am — Jan 22 5:00 am, Manado, Weather by CustomWeather, © 2017

Note: Actual official high and low records may vary slightly from our data, if they occured in-between our weather recording intervals... More about our weather records

Advertising

Manado Weather History for the Previous 24 Hours

Scroll right to see more
 ConditionsComfort  
Time TempWeatherWind HumidityBarometerVisibility
5:00 am
Sun, Jan 22
75 °FPassing clouds.3 mph100%29.86 "Hg5 mi
4:30 am75 °FPassing clouds.1 mph100%29.89 "Hg3 mi
3:30 am75 °FPassing clouds.1 mph100%29.86 "Hg3 mi
3:00 am75 °FLight rain. Passing clouds.2 mph100%29.86 "Hg2 mi
2:30 am75 °FLight rain. Passing clouds.No wind100%29.86 "Hg2 mi
1:30 am75 °FThunderstorms. Passing clouds.2 mph100%29.89 "Hg1 mi
1:00 am77 °FThunderstorms. Passing clouds.2 mph94%29.89 "Hg3 mi
12:30 am77 °FThunderstorms. Passing clouds.1 mph94%29.89 "Hg4 mi
11:30 pm
Sat, Jan 21
75 °FPassing clouds.No wind100%29.92 "Hg6 mi
11:00 pm77 °FPassing clouds.1 mph94%29.89 "Hg6 mi
10:30 pm75 °FPassing clouds.1 mph100%29.92 "Hg5 mi
10:00 pm77 °FPassing clouds.2 mph94%29.89 "Hg5 mi
9:30 pm77 °FPassing clouds.3 mph94%29.92 "Hg5 mi
9:00 pm77 °FPassing clouds.2 mph94%29.92 "Hg5 mi
8:30 pm77 °FPassing clouds.No wind94%29.92 "Hg5 mi
8:00 pm77 °FLight rain. Passing clouds.1 mph94%29.89 "Hg4 mi
7:30 pm77 °FLight rain. Passing clouds.No wind94%29.92 "Hg5 mi
7:00 pm77 °FPassing clouds.1 mph94%29.89 "Hg5 mi
6:30 pm79 °FLight rain. Passing clouds.2 mph94%29.86 "Hg4 mi
5:30 pm79 °FLight rain. Scattered clouds.N/A94%29.83 "Hg4 mi
5:00 pm79 °FScattered clouds.2 mph94%29.83 "Hg4 mi
4:30 pm79 °FScattered clouds.2 mph94%29.83 "Hg5 mi
4:00 pm79 °FScattered clouds.No wind89%29.80 "Hg5 mi
3:30 pm77 °FLight rain. Scattered clouds.2 mph94%29.80 "Hg5 mi
3:00 pm79 °FLight rain. Scattered clouds.6 mph89%29.80 "Hg3 mi
2:30 pm79 °FLight rain. Scattered clouds.7 mph89%29.83 "Hg3 mi
2:00 pm81 °FLight rain. Scattered clouds.5 mph89%29.83 "Hg4 mi
1:30 pm79 °FLight rain. Scattered clouds.7 mph94%29.83 "Hg4 mi
1:00 pm79 °FLight rain. Scattered clouds.7 mph94%29.86 "Hg2 mi
12:30 pm81 °FLight rain. Scattered clouds.6 mph89%29.86 "Hg4 mi
12:00 pm82 °FLight rain. Scattered clouds.7 mph84%29.86 "Hg4 mi
11:30 am82 °FLight rain. Scattered clouds.2 mph84%29.86 "Hg5 mi
11:00 am86 °FLight rain. Scattered clouds.6 mph70%29.89 "Hg5 mi
10:30 am84 °FScattered clouds.7 mph74%29.89 "Hg6 mi
10:00 am88 °FScattered clouds.7 mph66%29.89 "Hg6 mi
9:30 am86 °FScattered clouds.2 mph70%29.89 "HgN/A
9:00 am90 °FScattered clouds.2 mph67%29.89 "HgN/A
8:30 am86 °FPassing clouds.3 mph75%29.89 "HgN/A
8:00 am82 °FPassing clouds.No wind79%29.89 "HgN/A
7:30 am79 °FPassing clouds.1 mph94%29.89 "HgN/A
7:00 am75 °FPassing clouds.2 mph100%29.89 "HgN/A
6:30 am75 °FPassing clouds.2 mph94%29.86 "HgN/A
6:00 am75 °FPassing clouds.No wind94%29.86 "HgN/A
Weather by CustomWeather, © 2017

See weather overviewHow to use our weather pages